This demonstration page uses our WeatherBlox Daily Observations layout. Learn more.

Left ArrowRight Arrow

Hourly Observations for August 1, 2021

Temp ( °F °C ) Dew Point ( °F °C ) Humidity (%) Winds ( mph kmh ) Pressure ( in mb ) Visibility ( mi km ) Precip ( " mm )
12:15 am 00:15 Clear with Mist and Fog 67 19.5 66 18.7 95 95 N N/A 30.14 1021 3 5 N/A
12:35 am 00:35 Clear with Mist and Fog 67 19.3 65 18.6 96 96 NW 3 6 30.15 1021 3 5 N/A
12:55 am 00:55 Clear with Mist and Fog 66 19.1 65 18.5 96 96 N N/A 30.15 1021 3 4 N/A
1:15 am 01:15 Clear with Mist and Fog 66 19.1 65 18.4 96 96 N N/A 30.15 1021 3 5 N/A
1:35 am 01:35 Clear with Mist and Fog 66 18.9 65 18.1 95 95 N N/A 30.17 1022 3 5 N/A
1:55 am 01:55 Clear with Mist and Fog 65 18.5 64 17.8 96 96 NNW 3 6 30.17 1022 3 4 N/A
2:15 am 02:15 Partly Cloudy with Mist and Fog 65 18.5 64 17.7 95 95 NW 5 7 30.17 1022 3 4 N/A
2:35 am 02:35 Mostly Cloudy with Mist and Fog 65 18.6 64 18 96 96 NNW 3 6 30.17 1022 3 4 N/A
2:55 am 02:55 Partly Cloudy with Mist and Fog 66 19 65 18.2 95 95 N 5 7 30.17 1022 3 5 N/A
3:15 am 03:15 Mostly Cloudy with Mist and Fog 66 19 64 18 94 94 NNE 3 6 30.16 1021 3 4 N/A
3:35 am 03:35 Partly Cloudy with Mist and Fog 65 18.5 64 17.8 96 96 NE 6 9 30.18 1022 3 5 N/A
3:55 am 03:55 Mostly Cloudy with Mist and Fog 65 18.5 64 17.7 95 95 NNE 5 7 30.17 1022 3 5 N/A
4:15 am 04:15 Partly Cloudy with Mist and Fog 64 17.7 63 17 96 96 NNE 5 7 30.18 1022 3 4 N/A
4:35 am 04:35 Clear with Mist and Fog 63 17.3 62 16.6 96 96 NNE 6 9 30.19 1022 3 4 N/A
4:55 am 04:55 Partly Cloudy with Mist and Fog 63 17.1 62 16.5 96 96 NNE 5 7 30.19 1022 3 4 N/A
5:15 am 05:15 Clear with Mist and Fog 62 16.7 61 16.1 96 96 N 5 7 30.19 1022 3 4 N/A
5:35 am 05:35 Clear with Mist and Fog 62 16.6 61 16.1 97 97 N 5 7 30.20 1023 3 4 N/A
5:55 am 05:55 Partly Cloudy with Mist and Fog 61 16.2 60 15.6 96 96 NNE 6 9 30.22 1023 3 4 N/A
6:15 am 06:15 Partly Cloudy with Mist and Fog 62 16.8 61 16.2 96 96 N 5 7 30.21 1023 4 6 N/A
6:35 am 06:35 Partly Cloudy with Mist and Fog 62 16.9 61 15.9 94 94 NNW 3 6 30.21 1023 5 8 N/A
6:55 am 06:55 Partly Cloudy with Mist and Fog 61 16.3 60 15.5 95 95 N N/A 30.22 1023 3 5 N/A
7:15 am 07:15 Sunny with Mist and Fog 61 16.3 60 15.5 95 95 NW 3 6 30.23 1024 3 4 N/A
7:35 am 07:35 Sunny with Mist and Fog 62 16.6 60 15.8 95 95 N N/A 30.23 1024 3 5 N/A
7:55 am 07:55 Sunny with Mist and Fog 63 17.2 61 16.1 93 93 N N/A 30.23 1024 3 5 N/A
8:15 am 08:15 Sunny with Mist and Fog 65 18.1 62 16.8 92 92 N N/A 30.22 1023 4 6 N/A
8:35 am 08:35 Sunny with Mist and Fog 67 19.3 63 17.3 88 88 N N/A 30.22 1023 5 8 N/A
8:55 am 08:55 Hazy 68 19.9 63 17.4 86 86 N 3 6 30.22 1023 5 8 N/A
9:15 am 09:15 Sunny 69 20.5 64 17.5 83 83 N 5 7 30.21 1023 7 11 N/A
9:35 am 09:35 Sunny 70 21 64 17.8 82 82 NNE 3 6 30.21 1023 7 11 N/A
9:55 am 09:55 Sunny 71 21.8 64 18 79 79 N 5 7 30.20 1023 7 11 N/A
10:15 am 10:15 Sunny 72 22.2 63 17.1 73 73 NNE 6 9 30.21 1023 10 16 N/A
10:35 am 10:35 Sunny 73 23 62 16.5 67 67 NNE 7 11 30.20 1023 10 16 N/A
10:55 am 10:55 Sunny 74 23.4 61 15.9 63 63 NNE 8 13 30.20 1023 10 16 N/A
11:15 am 11:15 Sunny 74 23.6 59 14.8 58 58 NE 3 6 30.20 1023 10 16 N/A
11:35 am 11:35 Sunny 75 24.1 60 15.4 58 58 N 3 6 30.20 1023 10 16 N/A
11:55 am 11:55 Sunny 76 24.4 57 14 52 52 N 3 6 30.19 1022 10 16 N/A
12:15 pm 12:15 Sunny 76 24.7 57 14.1 52 52 N 5 7 30.19 1022 10 16 N/A
12:35 pm 12:35 Sunny 77 25 58 14.3 52 52 N 3 6 30.19 1022 10 16 N/A
12:55 pm 12:55 Sunny 77 25 59 14.9 54 54 NNW 5 7 30.18 1022 10 16 N/A
1:15 pm 13:15 Sunny 78 25.5 59 14.8 52 52 NNE 6 9 30.17 1022 10 16 N/A
1:35 pm 13:35 Partly Cloudy 78 25.6 58 14.5 50 50 N 6 9 30.16 1021 10 16 N/A
1:55 pm 13:55 Partly Cloudy 78 25.5 58 14.5 51 51 N 5 7 30.15 1021 10 16 N/A
2:15 pm 14:15 Partly Cloudy 79 26.2 58 14.7 49 49 N 3 6 30.15 1021 10 16 N/A
2:35 pm 14:35 Partly Cloudy 80 26.4 58 14.7 49 49 NNW 6 9 30.14 1021 10 16 N/A
2:55 pm 14:55 Partly Cloudy 80 26.5 55 12.7 42 42 NE 6 9 30.14 1021 10 16 N/A
3:15 pm 15:15 Partly Cloudy 80 26.5 56 13.4 44 44 NNE 7 11 30.13 1020 10 16 N/A
3:35 pm 15:35 Partly Cloudy 80 26.9 56 13.2 43 43 ENE 8 13 30.13 1020 10 16 N/A
3:55 pm 15:55 Partly Cloudy 80 26.7 56 13.3 44 44 NE 8 13 30.12 1020 10 16 N/A
4:15 pm 16:15 Sunny 80 26.9 54 12.4 41 41 NE 9 15 30.12 1020 10 16 N/A
4:35 pm 16:35 Sunny 80 26.7 56 13.3 44 44 NE 8 13 30.12 1020 10 16 N/A
4:55 pm 16:55 Sunny 80 26.8 57 13.9 45 45 NNE 8 13 30.11 1020 10 16 N/A
5:15 pm 17:15 Sunny 80 26.5 59 15 49 49 ENE 6 9 30.11 1020 10 16 N/A
5:35 pm 17:35 Sunny 79 26.3 58 14.7 49 49 E 7 11 30.11 1019 10 16 N/A
5:55 pm 17:55 Sunny 79 26.1 57 14 47 47 NE 8 13 30.10 1019 10 16 N/A
6:15 pm 18:15 Sunny 78 25.8 59 14.9 51 51 ENE 6 9 30.10 1019 10 16 N/A
6:35 pm 18:35 Sunny 78 25.5 58 14.6 51 51 ENE 6 9 30.10 1019 10 16 N/A
6:55 pm 18:55 Sunny 77 25.1 61 15.9 57 57 E 5 7 30.09 1019 10 16 N/A
7:15 pm 19:15 Sunny 76 24.5 61 16.2 60 60 E 5 7 30.10 1019 10 16 N/A
7:35 pm 19:35 Sunny 75 24 60 15.8 60 60 E 5 7 30.10 1019 10 16 N/A
7:55 pm 19:55 Sunny 74 23.5 63 17.2 68 68 ESE 5 7 30.11 1020 10 16 N/A
8:15 pm 20:15 Sunny 73 22.5 63 17.4 73 73 ESE 3 6 30.12 1020 7 11 N/A
8:35 pm 20:35 Sunny 71 21.8 63 17.3 76 76 ESE 3 6 30.12 1020 7 11 N/A
8:55 pm 20:55 Clear 70 21 63 17.1 79 79 ESE 3 6 30.14 1021 7 11 N/A
9:15 pm 21:15 Clear 67 19.5 62 16.5 83 83 ESE 6 9 30.15 1021 7 11 N/A
9:35 pm 21:35 Clear 67 19.3 62 16.4 83 83 ESE 6 9 30.16 1021 7 11 N/A
9:55 pm 21:55 Clear 65 18.5 61 16 85 85 SE 6 9 30.17 1022 7 11 N/A
10:15 pm 22:15 Clear 65 18.5 61 16 85 85 SE 6 9 30.18 1022 7 11 N/A
10:35 pm 22:35 Clear 64 17.8 60 15.8 88 88 ESE 5 7 30.19 1023 7 11 N/A
10:55 pm 22:55 Clear 64 17.6 60 15.5 88 88 ESE 6 9 30.20 1023 7 11 N/A
11:15 pm 23:15 Clear 64 17.7 59 15.1 85 85 ESE 5 7 30.21 1023 10 16 N/A
11:35 pm 23:35 Clear 64 17.6 59 15.1 85 85 SE 3 6 30.21 1023 10 16 N/A
11:55 pm 23:55 Clear 62 16.4 58 14.6 89 89 ESE 7 11 30.21 1023 7 11 N/A

Powered by AerisWeather